User: anonymous   Login
Location: Nebula Knoll Observatory
(43.6666°N, 71.0000°W)
Time: 01:27:46
(UTC-04:00)
Language:

Cosmos 1782 - Orbit

View from above orbital plane
View from above orbital plane
View from above satellite
View from above satellite

Ground track
Ground track

The orbit data is extracted from the following two-line orbital elements,

1 16986U 86074A   17268.40253083 +.00001339 +00000-0 +88245-4 0  9991
2 16986 082.5098 023.7303 0011471 004.8860 355.2478 15.06658683664763
Epoch (UTC): 25 September 2017 09:39:38
Eccentricity: 0.0011471
inclination: 82.5098°
perigee height: 538 km
apogee height: 554 km
right ascension of ascending node: 23.7303°
argument of perigee: 4.8860°
revolutions per day: 15.06658683
mean anomaly at epoch: 355.2478°
orbit number at epoch: 66476

The dashed part of the orbit path shows where the satellite is in the earth's shadow,  

DLR